FW8782 Weather Reports


Display with metric or nautical units.
time (UTC)temp
F
wind
direction
speed
MPH
gust
MPH
rain 1hr
in
rain 24hr
in
rain mn
in
humidity
%
barometer
mb
20260510022018 68 0 0.0 0.0 0.00 0.00 0.00 61 1015.8
20260510021533 68 0 0.0 0.0 0.00 0.00 0.00 58 1015.9
20260510021013 69 0 0.0 0.0 0.00 0.00 0.00 59 1015.9
20260510020515 69 0 0.0 0.0 0.00 0.00 0.00 58 1015.9
20260510020032 69 0 0.0 0.0 0.00 0.00 0.00 59 1016.1
20260510015514 69 0 0.0 0.0 0.00 0.00 0.00 59 1016.0
20260510015043 70 0 0.0 0.0 0.00 0.00 0.00 58 1016.0
20260510014535 70 0 0.0 2.0 0.00 0.00 0.00 59 1016.2
20260510014011 70 0 0.0 2.0 0.00 0.00 0.00 59 1016.3
20260510013514 70 0 0.0 2.0 0.00 0.00 0.00 56 1016.3
20260510013035 70 0 0.0 2.0 0.00 0.00 0.00 59 1016.3
20260510012516 70 0 0.0 1.0 0.00 0.00 0.00 59 1016.4
20260510012014 70 0 0.0 2.0 0.00 0.00 0.00 59 1016.4
20260510011533 70 0 0.0 2.0 0.00 0.00 0.00 56 1016.4
20260510011014 71 0 0.0 2.0 0.00 0.00 0.00 57 1016.6
20260510010514 71 0 0.0 2.0 0.00 0.00 0.00 56 1016.5
20260510010032 71 0 0.0 2.0 0.00 0.00 0.00 55 1016.5
20260510005514 71 339 0.0 2.0 0.00 0.00 0.00 58 1016.6
20260510005013 71 339 0.0 2.0 0.00 0.00 0.00 57 1016.8
20260510004531 71 0 0.0 2.0 0.00 0.00 0.00 58 1016.9
20260510004013 71 0 0.0 2.0 0.00 0.00 0.00 59 1016.9
20260510003512 71 284 0.0 2.0 0.00 0.00 0.00 53 1017.0
20260510003037 70 0 0.0 2.0 0.00 0.00 0.00 58 1017.0
20260510002512 71 0 0.0 2.0 0.00 0.00 0.00 57 1017.0
20260510002013 71 56 0.0 2.0 0.00 0.00 0.00 53 1017.0
20260510001534 71 276 0.0 2.0 0.00 0.00 0.00 56 1017.0
20260510001014 71 0 0.0 2.0 0.00 0.00 0.00 60 1016.9
20260510000514 71 0 0.0 2.0 0.00 0.00 0.00 59 1017.1
20260510000032 71 0 0.0 2.0 0.00 0.00 0.00 60 1017.3
20260509235514 71 266 0.0 2.0 0.00 0.00 0.00 58 1017.4
20260509235019 71 0 0.0 2.0 0.00 0.00 0.00 60 1017.3
20260509234547 71 157 0.0 2.0 0.00 0.00 0.00 58 1017.4
20260509234016 71 68 0.0 2.0 0.00 0.00 0.00 57 1017.5
20260509233514 71 0 0.0 2.0 0.00 0.00 0.00 60 1017.6
20260509233030 71 250 0.0 2.0 0.00 0.00 0.00 60 1017.6
20260509232514 71 239 0.0 2.0 0.00 0.00 0.00 59 1017.5
20260509232014 71 257 0.0 2.0 0.00 0.00 0.00 60 1017.5
20260509231533 71 0 0.0 2.0 0.00 0.00 0.00 59 1017.6
20260509231010 71 55 0.0 2.0 0.00 0.00 0.00 58 1017.8
20260509230512 71 69 1.0 2.0 0.00 0.00 0.00 57 1017.7
20260509230030 71 0 0.0 2.0 0.00 0.00 0.00 58 1017.8
20260509225512 71 0 0.0 2.0 0.00 0.00 0.00 59 1017.8
20260509225014 72 150 0.0 2.0 0.00 0.00 0.00 58 1017.9
20260509224532 72 0 0.0 2.0 0.00 0.00 0.00 58 1017.9
20260509224014 72 158 0.0 3.0 0.00 0.00 0.00 58 1018.0
20260509223514 72 290 1.0 3.0 0.00 0.00 0.00 56 1018.0
20260509223033 71 141 0.0 3.0 0.00 0.00 0.00 59 1017.9
20260509222515 70 196 0.0 3.0 0.00 0.00 0.00 59 1018.0
20260509222014 70 0 0.0 3.0 0.00 0.00 0.00 58 1018.2
20260509221536 70 0 1.0 3.0 0.00 0.00 0.00 57 1018.2
20260509221014 70 284 1.0 3.0 0.00 0.00 0.00 58 1018.3
20260509220514 70 0 0.0 3.0 0.00 0.00 0.00 61 1018.4
20260509220031 69 265 1.0 3.0 0.00 0.00 0.00 58 1018.5
20260509215514 69 0 0.0 3.0 0.00 0.00 0.00 60 1018.6
20260509215014 70 321 1.0 4.0 0.00 0.00 0.00 60 1018.8
20260509214531 70 311 1.0 3.0 0.00 0.00 0.00 57 1018.8
20260509214012 70 0 0.0 3.0 0.00 0.00 0.00 58 1018.9
20260509213512 70 309 1.0 3.0 0.00 0.00 0.00 60 1019.1
20260509213033 70 314 1.0 4.0 0.00 0.00 0.00 59 1019.0
20260509212514 69 0 0.0 4.0 0.00 0.00 0.00 60 1018.9
20260509212016 69 332 1.0 4.0 0.00 0.00 0.00 60 1019.1
20260509211530 68 0 0.0 2.0 0.00 0.00 0.00 63 1019.0
20260509211017 68 16 0.0 2.0 0.00 0.00 0.00 63 1019.2
20260509210516 68 314 1.0 2.0 0.00 0.00 0.00 62 1019.1
20260509210036 67 302 0.0 2.0 0.00 0.00 0.00 64 1019.2
20260509205511 68 329 0.0 2.0 0.00 0.00 0.00 63 1019.2
20260509205018 67 333 1.0 2.0 0.00 0.00 0.00 63 1019.2
20260509204532 67 347 1.0 2.0 0.00 0.00 0.00 63 1019.4
20260509204014 67 348 1.0 2.0 0.00 0.00 0.00 63 1019.5
20260509203514 67 274 0.0 2.0 0.00 0.00 0.00 64 1019.5
20260509203031 67 115 0.0 2.0 0.00 0.00 0.00 63 1019.4
20260509202514 67 67 0.0 2.0 0.00 0.00 0.00 65 1019.4
20260509202014 67 338 1.0 3.0 0.00 0.00 0.00 65 1019.5
20260509201530 67 322 0.0 3.0 0.00 0.00 0.00 66 1019.7
20260509201013 67 294 0.0 2.0 0.00 0.00 0.00 65 1019.7
20260509200514 67 246 1.0 2.0 0.00 0.00 0.00 66 1019.8
20260509200032 67 0 0.0 3.0 0.00 0.00 0.00 65 1019.9
20260509195516 67 336 0.0 3.0 0.00 0.00 0.00 65 1019.9
20260509195012 67 348 0.0 3.0 0.00 0.00 0.00 65 1020.0
20260509194534 67 316 0.0 4.0 0.00 0.00 0.00 65 1019.9
20260509194013 67 298 2.0 4.0 0.00 0.00 0.00 64 1019.9
20260509193514 66 229 1.0 4.0 0.00 0.00 0.00 64 1020.0
20260509193037 66 0 0.0 3.0 0.00 0.00 0.00 66 1020.1
20260509192514 66 260 0.0 5.0 0.00 0.00 0.00 66 1020.3
20260509192018 66 257 1.0 5.0 0.00 0.00 0.00 64 1020.3
20260509191532 66 262 2.0 5.0 0.00 0.00 0.00 65 1020.5
20260509191013 66 232 1.0 3.0 0.00 0.00 0.00 66 1020.5
20260509190514 65 348 1.0 3.0 0.00 0.00 0.00 66 1020.5
20260509190035 65 327 0.0 2.0 0.00 0.00 0.00 67 1020.6
20260509185515 65 0 0.0 2.0 0.00 0.00 0.00 66 1020.5
20260509185014 65 325 0.0 3.0 0.00 0.00 0.00 67 1020.5
20260509184540 65 329 0.0 3.0 0.00 0.00 0.00 67 1020.6
20260509184015 64 284 1.0 3.0 0.00 0.00 0.00 68 1020.6
20260509183514 64 0 1.0 3.0 0.00 0.00 0.00 67 1020.7
20260509183033 64 244 1.0 3.0 0.00 0.00 0.00 69 1020.7
20260509182514 63 155 1.0 3.0 0.00 0.00 0.00 68 1020.8
20260509182011 63 257 1.0 4.0 0.00 0.00 0.00 69 1020.7
20260509181533 63 0 1.0 4.0 0.00 0.00 0.00 69 1020.8
20260509181018 63 276 1.0 4.0 0.00 0.00 0.00 69 1020.8
20260509180515 63 298 1.0 2.0 0.00 0.00 0.00 70 1020.8
20260509180033 62 229 0.0 4.0 0.00 0.00 0.00 72 1020.8
20260509175514 61 273 1.0 4.0 0.00 0.00 0.00 71 1020.7
20260509175017 61 312 0.0 3.0 0.00 0.00 0.00 74 1020.8
20260509174533 60 0 1.0 3.0 0.00 0.00 0.00 73 1020.9
20260509174014 60 0 0.0 3.0 0.00 0.00 0.00 75 1020.9
20260509173512 59 229 1.0 3.0 0.00 0.00 0.00 75 1021.0
20260509173039 59 207 1.0 3.0 0.00 0.00 0.00 75 1020.9
20260509172516 59 5 1.0 3.0 0.00 0.00 0.00 76 1021.0
20260509172014 59 267 1.0 3.0 0.00 0.00 0.00 76 1021.1
20260509171541 59 0 0.0 4.0 0.00 0.00 0.00 76 1021.2
20260509171014 58 191 1.0 4.0 0.00 0.00 0.00 76 1021.3
20260509170516 58 249 1.0 4.0 0.00 0.00 0.00 77 1021.1
20260509170034 58 0 0.0 2.0 0.00 0.00 0.00 77 1021.1
20260509165514 58 248 0.0 4.0 0.00 0.00 0.00 78 1021.4
20260509165015 57 259 1.0 4.0 0.00 0.00 0.00 78 1021.2
20260509164535 57 306 1.0 3.0 0.00 0.00 0.00 78 1021.1
20260509164014 57 0 0.0 3.0 0.00 0.00 0.00 80 1021.1
20260509163516 57 317 0.0 2.0 0.00 0.00 0.00 80 1021.2
20260509163031 56 0 0.0 2.0 0.00 0.00 0.00 81 1021.4
20260509162514 56 0 0.0 2.0 0.00 0.00 0.00 81 1021.5
20260509162016 55 282 0.0 2.0 0.00 0.00 0.00 81 1021.6
20260509161535 55 0 0.0 2.0 0.00 0.00 0.00 82 1021.5
20260509161016 55 0 0.0 2.0 0.00 0.00 0.00 82 1021.6
20260509160514 54 273 0.0 2.0 0.00 0.00 0.00 82 1021.6
20260509160032 54 279 0.0 3.0 0.00 0.00 0.00 82 1021.7
20260509155511 54 319 0.0 3.0 0.00 0.00 0.00 83 1021.7
20260509155015 53 319 0.0 2.0 0.00 0.00 0.00 84 1021.8
20260509154536 53 100 0.0 2.0 0.00 0.00 0.00 86 1021.9
20260509154015 52 0 0.0 2.0 0.00 0.00 0.00 86 1021.7
20260509153514 52 0 0.0 2.0 0.00 0.00 0.00 87 1021.9
20260509153037 52 0 0.0 2.0 0.00 0.00 0.00 88 1021.8
20260509152514 52 0 0.0 0.0 0.00 0.00 0.00 88 1022.0
20260509152014 51 0 0.0 0.0 0.00 0.00 0.00 89 1022.1
20260509151532 51 0 0.0 2.0 0.00 0.00 0.00 89 1022.1
20260509151012 51 0 0.0 2.0 0.00 0.00 0.00 90 1022.2
20260509150515 51 300 0.0 3.0 0.00 0.00 0.00 90 1022.1
20260509150030 50 0 0.0 3.0 0.00 0.00 0.00 90 1022.1
20260509145514 50 253 0.0 3.0 0.00 0.00 0.00 90 1022.2
20260509145014 50 227 0.0 2.0 0.00 0.00 0.00 90 1022.1
20260509144553 49 0 0.0 0.0 0.00 0.00 0.00 90 1022.1
20260509144014 49 0 0.0 0.0 0.00 0.00 0.00 90 1022.2
20260509143517 48 0 0.0 0.0 0.00 0.00 0.00 90 1022.2
20260509143039 47 0 0.0 0.0 0.00 0.00 0.00 90 1022.1
20260509142515 47 0 0.0 0.0 0.00 0.00 0.00 89 1022.0
20260509142012 46 0 0.0 0.0 0.00 0.00 0.00 89 1022.1
20260509141539 46 0 0.0 0.0 0.00 0.00 0.00 89 1022.1
20260509141015 46 0 0.0 0.0 0.00 0.00 0.00 89 1022.1
20260509140513 45 0 0.0 0.0 0.00 0.00 0.00 89 1022.1
20260509140031 45 0 0.0 0.0 0.00 0.00 0.00 88 1022.1
20260509135514 45 0 0.0 0.0 0.00 0.00 0.00 88 1022.2
20260509135014 45 0 0.0 0.0 0.00 0.00 0.00 88 1022.1
20260509134534 45 0 0.0 0.0 0.00 0.00 0.00 88 1022.0
20260509134016 45 0 0.0 0.0 0.00 0.00 0.00 88 1022.0
20260509133511 45 0 0.0 0.0 0.00 0.00 0.00 88 1021.9
20260509133033 45 0 0.0 0.0 0.00 0.00 0.00 87 1022.0
20260509132514 45 0 0.0 0.0 0.00 0.00 0.00 87 1022.0
20260509132015 45 0 0.0 0.0 0.00 0.00 0.00 87 1021.9
20260509131538 45 0 0.0 0.0 0.00 0.00 0.00 87 1022.0
20260509131017 45 0 0.0 0.0 0.00 0.00 0.00 87 1022.0
20260509130514 46 0 0.0 0.0 0.00 0.00 0.00 87 1022.1
20260509130030 46 0 0.0 0.0 0.00 0.00 0.00 87 1022.0
20260509125514 46 0 0.0 0.0 0.00 0.00 0.00 87 1022.0
20260509125014 46 0 0.0 0.0 0.00 0.00 0.00 87 1022.0
20260509124548 46 0 0.0 0.0 0.00 0.00 0.00 87 1022.1
20260509124014 46 0 0.0 0.0 0.00 0.00 0.00 87 1022.0
20260509123513 47 0 0.0 0.0 0.00 0.00 0.00 87 1022.1
20260509123034 47 0 0.0 0.0 0.00 0.00 0.00 87 1022.2
20260509122515 47 0 0.0 0.0 0.00 0.00 0.00 87 1022.2
20260509122014 47 0 0.0 0.0 0.00 0.00 0.00 87 1022.3
20260509121534 47 0 0.0 0.0 0.00 0.00 0.00 87 1022.2
20260509121014 47 0 0.0 0.0 0.00 0.00 0.00 87 1022.3
20260509120514 47 0 0.0 0.0 0.00 0.00 0.00 87 1022.2
20260509120033 48 0 0.0 0.0 0.00 0.00 0.00 87 1022.3
20260509115513 48 0 0.0 0.0 0.00 0.00 0.00 87 1022.2
20260509115016 48 0 0.0 0.0 0.00 0.00 0.00 87 1022.2
20260509114533 48 0 0.0 0.0 0.00 0.00 0.00 87 1022.4
20260509114015 48 0 0.0 0.0 0.00 0.00 0.00 87 1022.3
20260509113515 48 0 0.0 0.0 0.00 0.00 0.00 87 1022.4
20260509113035 48 0 0.0 0.0 0.00 0.00 0.00 87 1022.6
20260509112514 48 0 0.0 0.0 0.00 0.00 0.00 87 1022.5
20260509112013 48 0 0.0 0.0 0.00 0.00 0.00 87 1022.6
20260509111533 48 0 0.0 0.0 0.00 0.00 0.00 87 1022.6
20260509111014 48 0 0.0 0.0 0.00 0.00 0.00 87 1022.7
20260509110513 48 0 0.0 0.0 0.00 0.00 0.00 87 1022.7
20260509110031 48 0 0.0 0.0 0.00 0.00 0.00 87 1022.6
20260509105514 48 0 0.0 0.0 0.00 0.00 0.00 87 1022.7
20260509105015 48 0 0.0 0.0 0.00 0.00 0.00 87 1022.7
20260509104535 48 0 0.0 0.0 0.00 0.00 0.00 87 1022.7
20260509104014 48 0 0.0 0.0 0.00 0.00 0.00 87 1022.7
20260509103514 48 0 0.0 0.0 0.00 0.00 0.00 87 1022.6
20260509103030 48 0 0.0 0.0 0.00 0.00 0.00 87 1022.7
20260509102516 48 0 0.0 0.0 0.00 0.00 0.00 87 1022.5
20260509102018 48 0 0.0 0.0 0.00 0.00 0.00 87 1022.6
20260509101532 48 0 0.0 0.0 0.00 0.00 0.00 87 1022.6
20260509101015 48 0 0.0 0.0 0.00 0.00 0.00 87 1022.6
20260509100514 48 0 0.0 0.0 0.00 0.00 0.00 87 1022.8
20260509100048 48 0 0.0 0.0 0.00 0.00 0.00 87 1022.8
20260509095515 48 0 0.0 0.0 0.00 0.00 0.00 87 1022.8
20260509095012 48 0 0.0 0.0 0.00 0.00 0.00 87 1022.8
20260509094535 48 0 0.0 0.0 0.00 0.00 0.00 87 1022.7
20260509094011 48 0 0.0 0.0 0.00 0.00 0.00 87 1022.6
20260509093514 48 0 0.0 0.0 0.00 0.00 0.00 87 1022.7
20260509093031 48 0 0.0 0.0 0.00 0.00 0.00 87 1022.8
20260509092514 48 0 0.0 0.0 0.00 0.00 0.00 87 1022.8
20260509092013 48 0 0.0 0.0 0.00 0.00 0.00 87 1022.7
20260509091532 48 0 0.0 0.0 0.00 0.00 0.00 87 1022.9
20260509091014 48 0 0.0 0.0 0.00 0.00 0.00 87 1022.8
20260509090514 48 0 0.0 0.0 0.00 0.00 0.00 86 1022.9
20260509090032 48 0 0.0 0.0 0.00 0.00 0.00 86 1022.9
20260509085514 48 0 0.0 0.0 0.00 0.00 0.00 86 1023.0
20260509085020 48 0 0.0 0.0 0.00 0.00 0.00 86 1023.0
20260509084534 48 0 0.0 0.0 0.00 0.00 0.00 86 1023.1
20260509084014 48 0 0.0 0.0 0.00 0.00 0.00 86 1023.1
20260509083514 48 0 0.0 0.0 0.00 0.00 0.00 86 1023.1
20260509083035 48 0 0.0 0.0 0.00 0.00 0.00 86 1023.1
20260509082518 48 0 0.0 0.0 0.00 0.00 0.00 86 1023.1
20260509082012 48 0 0.0 0.0 0.00 0.00 0.00 86 1023.1
20260509081541 48 0 0.0 0.0 0.00 0.00 0.00 85 1023.2
20260509081014 48 0 0.0 0.0 0.00 0.00 0.00 85 1023.2
20260509080514 48 0 0.0 0.0 0.00 0.00 0.00 85 1023.1
20260509080032 48 0 0.0 0.0 0.00 0.00 0.00 85 1023.1
20260509075514 48 0 0.0 0.0 0.00 0.00 0.00 85 1023.1
20260509075016 49 0 0.0 0.0 0.00 0.00 0.00 85 1023.1
20260509074536 49 0 0.0 0.0 0.00 0.00 0.00 85 1023.1
20260509074013 49 0 0.0 0.0 0.00 0.00 0.00 85 1023.1
20260509073514 49 0 0.0 0.0 0.00 0.00 0.00 85 1023.1
20260509073032 49 0 0.0 0.0 0.00 0.00 0.00 84 1023.2
20260509072516 49 0 0.0 0.0 0.00 0.00 0.00 84 1023.2
20260509072013 50 0 0.0 0.0 0.00 0.00 0.00 84 1023.0
20260509071535 50 0 0.0 0.0 0.00 0.00 0.00 84 1023.0
20260509071014 50 0 0.0 0.0 0.00 0.00 0.00 83 1022.9
20260509070513 50 0 0.0 0.0 0.00 0.00 0.00 83 1023.0
20260509070033 50 0 0.0 0.0 0.00 0.00 0.00 83 1023.0
20260509065515 51 0 0.0 0.0 0.00 0.00 0.00 83 1023.0
20260509065012 51 0 0.0 0.0 0.00 0.00 0.00 83 1023.0
20260509064532 51 0 0.0 0.0 0.00 0.00 0.00 82 1022.9
20260509064011 51 0 0.0 0.0 0.00 0.00 0.00 82 1022.8
20260509063514 51 0 0.0 0.0 0.00 0.00 0.00 82 1022.8
20260509063034 51 0 0.0 0.0 0.00 0.00 0.00 82 1022.8
20260509062515 52 0 0.0 0.0 0.00 0.00 0.00 82 1022.8
20260509062017 52 0 0.0 0.0 0.00 0.00 0.00 82 1022.8
20260509061545 52 0 0.0 0.0 0.00 0.00 0.00 82 1022.8
20260509061013 52 0 0.0 0.0 0.00 0.00 0.00 82 1022.8
20260509060512 52 0 0.0 0.0 0.00 0.00 0.00 82 1022.7
20260509060037 52 0 0.0 0.0 0.00 0.00 0.00 82 1022.7
20260509055513 52 0 0.0 0.0 0.00 0.00 0.00 82 1022.6
20260509055019 52 0 0.0 0.0 0.00 0.00 0.00 82 1022.7
20260509054537 52 0 0.0 0.0 0.00 0.00 0.00 82 1022.7
20260509054015 52 0 0.0 0.0 0.00 0.00 0.00 81 1022.7
20260509053511 52 0 0.0 0.0 0.00 0.00 0.00 81 1022.7
20260509053035 52 0 0.0 0.0 0.00 0.00 0.00 80 1022.7
20260509052514 52 0 0.0 0.0 0.00 0.00 0.00 80 1022.7
20260509052016 52 0 0.0 0.0 0.00 0.00 0.00 80 1022.7
20260509051534 53 0 0.0 0.0 0.00 0.00 0.00 79 1022.7
20260509051016 53 0 0.0 0.0 0.00 0.00 0.00 79 1022.7
20260509050515 53 0 0.0 0.0 0.00 0.00 0.00 79 1022.6
20260509050047 53 0 0.0 0.0 0.00 0.00 0.00 78 1022.6
20260509045515 53 0 0.0 0.0 0.00 0.00 0.00 78 1022.6
20260509045014 54 0 0.0 0.0 0.00 0.00 0.00 78 1022.6
20260509044543 54 0 0.0 0.0 0.00 0.00 0.00 78 1022.5
20260509044014 54 0 0.0 0.0 0.00 0.00 0.00 77 1022.5
20260509043515 54 0 0.0 0.0 0.00 0.00 0.00 77 1022.4
20260509043030 54 0 0.0 0.0 0.00 0.00 0.00 76 1022.4
20260509042518 55 0 0.0 0.0 0.00 0.00 0.00 76 1022.4
20260509042014 55 0 0.0 0.0 0.00 0.00 0.00 76 1022.4
20260509041531 55 0 0.0 0.0 0.00 0.00 0.00 76 1022.5
20260509041015 55 0 0.0 0.0 0.00 0.00 0.00 76 1022.5
20260509040515 55 0 0.0 0.0 0.00 0.00 0.00 75 1022.5
20260509040032 55 0 0.0 0.0 0.00 0.00 0.00 75 1022.4
20260509035515 55 0 0.0 2.0 0.00 0.00 0.00 74 1022.3
20260509035015 56 0 0.0 2.0 0.00 0.00 0.00 74 1022.4
20260509034531 56 0 0.0 2.0 0.00 0.00 0.00 74 1022.3
20260509034014 56 0 0.0 2.0 0.00 0.00 0.00 73 1022.3
20260509033514 56 0 0.0 3.0 0.00 0.00 0.00 73 1022.2
20260509033032 56 0 0.0 3.0 0.00 0.00 0.00 73 1022.2
20260509032518 56 267 1.0 3.0 0.00 0.00 0.00 73 1022.2
20260509032014 56 0 0.0 2.0 0.00 0.00 0.00 73 1022.2
20260509031535 57 88 0.0 2.0 0.00 0.00 0.00 73 1022.2
20260509031013 57 281 0.0 2.0 0.00 0.00 0.00 72 1022.1
20260509030513 57 316 0.0 2.0 0.00 0.00 0.00 72 1022.1
20260509030034 57 306 0.0 3.0 0.00 0.00 0.00 71 1022.1
20260509025514 57 0 0.0 3.0 0.00 0.00 0.00 71 1022.1
20260509025015 57 337 0.0 3.0 0.00 0.00 0.00 71 1022.0
20260509024532 57 223 0.0 2.0 0.00 0.00 0.00 71 1022.1
20260509024017 57 0 0.0 4.0 0.00 0.00 0.00 71 1022.0
20260509023518 58 43 0.0 4.0 0.00 0.00 0.00 70 1022.0
20260509023041 58 0 0.0 4.0 0.00 0.00 0.00 70 1022.0
20260509022515 58 202 0.0 4.0 0.00 0.00 0.00 70 1021.9